Starlink 34437

operational
NORAD ID: 64346 Int'l Des: 2025-126 Owner: SPXS Country: US Constellation: starlink
LEOCIRCULAR

关于 Starlink 34437

正在加载描述...

实时位置

正在加载3D地球...

即将过境

高度历史

Altitude vs Time

uPlot chart will show altitude changes over time

两行轨道根数

1 64346U 25126C 26061.17124322 .00011686 00000-0 98489-3 0 9999
2 64346 70.0019 53.4991 0002830 272.0294 88.0541 14.98355234 39554
Epoch: Mar 2, 2026 • Age: 27 hours

当前状态

高度 574.9 km
速度 7.58 km/s
星下点 22.02°N, 13.18°E
发射日期 Jun 13, 2025
运行时间 0.7 years
类型 internet

技术详情

分类 Payload
质量 575.00 kg
干质量 530.00 kg
总质量 575.00 kg
长度 0.30 m
直径 4.10 m
跨度 29.00 m
形状 Box + pan
制造商 SPXS
平台类型 Starlink V2MO
阶段状态 In Orbit
所有者/国家 SPXS/US

大型星座

Loading constellations...